Terminal Aerodrome Forecast
Issued by NWS

Home | Current Version | Previous Version | Text Only | Print | Product List | Glossary Off
Versions: 1 2 3 4 5 6 7 8 9 10 11 12 13 14 15 16 17 18 19 20 21 22 23

000
FTUS45 KGGW 022119 AAA
TAFGDV
TAF AMD
KGDV 022119Z 0221/0318 19010KT P6SM FEW200
      TEMPO 0221/0223 VRB25G50KT -TSRA OVC100CB
     FM030900 34010KT P6SM BKN150
      AMD LTD TO CLD VIS AND WIND=

USA.gov is the U.S. government's official web portal to all federal, state and local government web resources and services.